FW1323 Weather Reports


Display with metric or nautical units.
time (UTC)temp
F
wind
direction
speed
MPH
gust
MPH
rain 1hr
in
rain 24hr
in
rain mn
in
humidity
%
barometer
mb
20260504081516 52 162 4.0 9.0 0.00 0.00 0.00 70 1008.6
20260504044533 53 203 5.0 11.0 0.00 0.00 0.00 67 1010.7
20260504043028 53 208 3.0 10.0 0.00 0.00 0.00 67 1010.9
20260504041524 53 193 3.0 11.0 0.00 0.00 0.00 67 1010.9
20260504040037 52 198 3.0 8.0 0.00 0.00 0.00 68 1011.3
20260504034523 52 175 4.0 8.0 0.00 0.00 0.00 68 1011.3
20260504033022 52 192 2.0 7.0 0.00 0.00 0.00 68 1011.5
20260504031520 52 186 2.0 7.0 0.00 0.00 0.00 68 1011.6
20260504030019 52 185 1.0 6.0 0.00 0.00 0.00 69 1011.7
20260504024519 52 202 1.0 5.0 0.00 0.00 0.00 69 1011.8
20260504023018 52 187 2.0 5.0 0.00 0.00 0.00 69 1011.8
20260504021517 52 180 1.0 5.0 0.00 0.00 0.00 67 1011.7
20260504020016 53 166 2.0 7.0 0.00 0.00 0.00 67 1011.5
20260504014523 53 168 3.0 5.0 0.00 0.00 0.00 66 1011.5
20260504013017 54 177 2.0 8.0 0.00 0.00 0.00 65 1011.6
20260504011513 54 182 4.0 7.0 0.00 0.00 0.00 63 1011.6
20260504010011 54 183 4.0 7.0 0.00 0.00 0.00 64 1011.5
20260504004508 54 192 3.0 11.0 0.00 0.00 0.00 64 1011.1
20260504003009 55 191 3.0 14.0 0.00 0.00 0.00 64 1011.1
20260504001506 56 193 6.0 10.0 0.00 0.00 0.00 60 1011.6
20260504000004 57 201 4.0 10.0 0.00 0.00 0.00 55 1011.4
20260503234505 57 183 6.0 13.0 0.00 0.00 0.00 53 1011.6
20260503233001 58 170 5.0 17.0 0.00 0.00 0.00 51 1011.8
20260503231600 59 111 8.0 18.0 0.00 0.00 0.00 50 1011.5
20260503230103 59 177 8.0 15.0 0.00 0.00 0.00 48 1011.8
20260503224557 59 164 6.0 12.0 0.00 0.00 0.00 49 1012.0
20260503223055 59 192 7.0 17.0 0.00 0.00 0.00 48 1012.1
20260503221557 60 146 7.0 13.0 0.00 0.00 0.00 47 1012.4
20260503220053 61 271 9.0 19.0 0.00 0.00 0.00 45 1012.8
20260503214551 60 246 8.0 19.0 0.00 0.00 0.00 45 1012.9
20260503213051 61 244 8.0 22.0 0.00 0.00 0.00 43 1013.3
20260503211548 61 272 7.0 14.0 0.00 0.00 0.00 42 1013.4
20260503210044 61 235 5.0 21.0 0.00 0.00 0.00 44 1013.7
20260503204544 60 199 7.0 17.0 0.00 0.00 0.00 43 1013.8
20260503203043 60 207 6.0 25.0 0.00 0.00 0.00 43 1014.1
20260503201540 60 256 12.0 21.0 0.00 0.00 0.00 42 1014.5
20260503200039 60 243 9.0 21.0 0.00 0.00 0.00 42 1014.4
20260503194537 60 244 9.0 15.0 0.00 0.00 0.00 42 1014.5
20260503193040 59 216 10.0 15.0 0.00 0.00 0.00 43 1014.8
20260503191531 58 239 9.0 18.0 0.00 0.00 0.00 43 1015.1
20260503190031 58 284 5.0 17.0 0.00 0.00 0.00 46 1015.4
20260503184528 58 219 9.0 16.0 0.00 0.00 0.00 44 1015.8
20260503183025 58 161 7.0 15.0 0.00 0.00 0.00 44 1016.1
20260503181523 57 260 8.0 17.0 0.00 0.00 0.00 45 1016.5
20260503180021 57 198 8.0 17.0 0.00 0.00 0.00 43 1016.6
20260503174526 57 220 12.0 19.0 0.00 0.00 0.00 43 1016.7
20260503173023 58 212 6.0 21.0 0.00 0.00 0.00 46 1016.9
20260503171522 57 263 11.0 17.0 0.00 0.00 0.00 44 1017.0